Voltar ao catálogo

STARLINK-30918

AtivoComunicaçõesVLEO
NORAD 58365·PAYLOAD·🇺🇸 United States

Lançado Nov 18, 2023 de Cape Canaveral Space Force Station

Loading…

Próximas Passagens (próximas 24 horas)

TLE

AtualizadoSource: CelesTrak SupGP

Época: Sep 14, 2026, 22:04 UTC

1 58365C 23177Q   26257.91993056 -.00050853  00000+0 -18416-2 0  2572
2 58365  43.0019   2.0654 0001624 272.2420 179.8225 15.27608714    11

Acompanhe STARLINK-30918 em tempo real com AllMySat

Download on the App Store